iso_date,epoch_date,Year,Hour,Min,DOY,POS_DOY,Lat,Lon,BP,Ts,Ta,has_bp,has_ts,has_ta,BuoyID,Buoy_Type,Buoy_Owner,Logistics,Hemisphere
2020-09-07T22:00:02Z,1599516003,2020,22,0,251.9167,251.9167,78.998,170.855,-999.00,-1.33,-999.0,no,yes,no,300234067876920,SVP3GI,AOML,ARAON,North
2020-09-07T22:59:57Z,1599519597,2020,23,0,251.9583,251.9583,78.998,170.913,-999.00,-1.33,-999.0,no,yes,no,300234067876920,SVP3GI,AOML,ARAON,North
2020-09-08T00:00:00Z,1599523200,2020,0,0,252.0,252.0,78.998,170.965,-999.00,-1.33,-999.0,no,yes,no,300234067876920,SVP3GI,AOML,ARAON,North
2020-09-08T01:00:02Z,1599526803,2020,1,0,252.0417,252.0417,78.998,171.008,-999.00,-1.34,-999.0,no,yes,no,300234067876920,SVP3GI,AOML,ARAON,North
2020-09-08T01:59:57Z,1599530397,2020,2,0,252.0833,252.0833,78.999,171.042,-999.00,-1.31,-999.0,no,yes,no,300234067876920,SVP3GI,AOML,ARAON,North
2020-09-08T03:00:00Z,1599534000,2020,3,0,252.125,252.125,78.999,171.064,-999.00,-1.32,-999.0,no,yes,no,300234067876920,SVP3GI,AOML,ARAON,North
2020-09-08T04:00:02Z,1599537603,2020,4,0,252.1667,252.1667,78.999,171.071,-999.00,-1.31,-999.0,no,yes,no,300234067876920,SVP3GI,AOML,ARAON,North
2020-09-08T04:59:57Z,1599541197,2020,5,0,252.2083,252.2083,78.999,171.072,-999.00,-1.3,-999.0,no,yes,no,300234067876920,SVP3GI,AOML,ARAON,North
2020-09-08T06:00:00Z,1599544800,2020,6,0,252.25,252.25,79.001,171.07,-999.00,-1.3,-999.0,no,yes,no,300234067876920,SVP3GI,AOML,ARAON,North
2020-09-08T07:00:02Z,1599548403,2020,7,0,252.2917,252.2917,79.002,171.068,-999.00,-1.3,-999.0,no,yes,no,300234067876920,SVP3GI,AOML,ARAON,North
2020-09-08T07:59:57Z,1599551997,2020,8,0,252.3333,252.3333,79.003,171.069,-999.00,-1.33,-999.0,no,yes,no,300234067876920,SVP3GI,AOML,ARAON,North
2020-09-08T09:00:00Z,1599555600,2020,9,0,252.375,252.375,79.003,171.057,-999.00,-1.32,-999.0,no,yes,no,300234067876920,SVP3GI,AOML,ARAON,North
2020-09-08T10:00:02Z,1599559203,2020,10,0,252.4167,252.4167,79.0,171.039,-999.00,-1.34,-999.0,no,yes,no,300234067876920,SVP3GI,AOML,ARAON,North
2020-09-08T10:59:57Z,1599562797,2020,11,0,252.4583,252.4583,78.997,171.018,-999.00,-1.34,-999.0,no,yes,no,300234067876920,SVP3GI,AOML,ARAON,North
2020-09-08T12:00:00Z,1599566400,2020,12,0,252.5,252.5,78.994,170.988,-999.00,-1.35,-999.0,no,yes,no,300234067876920,SVP3GI,AOML,ARAON,North
2020-09-08T13:00:02Z,1599570003,2020,13,0,252.5417,252.5417,78.992,170.95,-999.00,-1.36,-999.0,no,yes,no,300234067876920,SVP3GI,AOML,ARAON,North
2020-09-08T13:59:57Z,1599573597,2020,14,0,252.5833,252.5833,78.992,170.912,-999.00,-1.37,-999.0,no,yes,no,300234067876920,SVP3GI,AOML,ARAON,North
2020-09-08T15:00:00Z,1599577200,2020,15,0,252.625,252.625,78.993,170.871,-999.00,-1.37,-999.0,no,yes,no,300234067876920,SVP3GI,AOML,ARAON,North
2020-09-08T16:00:02Z,1599580803,2020,16,0,252.6667,252.6667,78.995,170.835,-999.00,-1.4,-999.0,no,yes,no,300234067876920,SVP3GI,AOML,ARAON,North
2020-09-08T16:59:57Z,1599584397,2020,17,0,252.7083,252.7083,78.999,170.803,-999.00,-1.41,-999.0,no,yes,no,300234067876920,SVP3GI,AOML,ARAON,North
2020-09-08T18:00:00Z,1599588000,2020,18,0,252.75,252.75,79.002,170.779,-999.00,-1.43,-999.0,no,yes,no,300234067876920,SVP3GI,AOML,ARAON,North
2020-09-08T19:00:02Z,1599591603,2020,19,0,252.7917,252.7917,79.006,170.761,-999.00,-1.36,-999.0,no,yes,no,300234067876920,SVP3GI,AOML,ARAON,North
2020-09-08T19:59:57Z,1599595197,2020,20,0,252.8333,252.8333,79.009,170.742,-999.00,-1.38,-999.0,no,yes,no,300234067876920,SVP3GI,AOML,ARAON,North
2020-09-08T21:00:00Z,1599598800,2020,21,0,252.875,252.875,79.011,170.722,-999.00,-1.36,-999.0,no,yes,no,300234067876920,SVP3GI,AOML,ARAON,North
2020-09-08T22:00:02Z,1599602403,2020,22,0,252.9167,252.9167,79.011,170.711,-999.00,-1.34,-999.0,no,yes,no,300234067876920,SVP3GI,AOML,ARAON,North
2020-09-08T22:59:57Z,1599605997,2020,23,0,252.9583,252.9583,79.01,170.694,-999.00,-1.35,-999.0,no,yes,no,300234067876920,SVP3GI,AOML,ARAON,North
2020-09-09T00:00:00Z,1599609600,2020,0,0,253.0,253.0,79.009,170.67,-999.00,-1.36,-999.0,no,yes,no,300234067876920,SVP3GI,AOML,ARAON,North
2020-09-09T01:00:02Z,1599613203,2020,1,0,253.0417,253.0417,79.009,170.638,-999.00,-1.36,-999.0,no,yes,no,300234067876920,SVP3GI,AOML,ARAON,North
2020-09-09T01:59:57Z,1599616797,2020,2,0,253.0833,253.0833,79.011,170.606,-999.00,-1.36,-999.0,no,yes,no,300234067876920,SVP3GI,AOML,ARAON,North
2020-09-09T03:00:00Z,1599620400,2020,3,0,253.125,253.125,79.014,170.578,-999.00,-1.36,-999.0,no,yes,no,300234067876920,SVP3GI,AOML,ARAON,North
2020-09-09T04:00:02Z,1599624003,2020,4,0,253.1667,253.1667,79.019,170.554,-999.00,-1.35,-999.0,no,yes,no,300234067876920,SVP3GI,AOML,ARAON,North
2020-09-09T04:59:57Z,1599627597,2020,5,0,253.2083,253.2083,79.024,170.541,-999.00,-1.34,-999.0,no,yes,no,300234067876920,SVP3GI,AOML,ARAON,North
2020-09-09T06:00:00Z,1599631200,2020,6,0,253.25,253.25,79.03,170.539,-999.00,-1.37,-999.0,no,yes,no,300234067876920,SVP3GI,AOML,ARAON,North
2020-09-09T07:00:02Z,1599634803,2020,7,0,253.2917,253.2917,79.035,170.547,-999.00,-1.4,-999.0,no,yes,no,300234067876920,SVP3GI,AOML,ARAON,North
2020-09-09T07:59:57Z,1599638397,2020,8,0,253.3333,253.3333,79.039,170.564,-999.00,-1.38,-999.0,no,yes,no,300234067876920,SVP3GI,AOML,ARAON,North
2020-09-09T09:00:00Z,1599642000,2020,9,0,253.375,253.375,79.041,170.579,-999.00,-1.41,-999.0,no,yes,no,300234067876920,SVP3GI,AOML,ARAON,North
2020-09-09T10:00:02Z,1599645603,2020,10,0,253.4167,253.4167,79.041,170.59,-999.00,-1.41,-999.0,no,yes,no,300234067876920,SVP3GI,AOML,ARAON,North
2020-09-09T10:59:57Z,1599649197,2020,11,0,253.4583,253.4583,79.042,170.593,-999.00,-1.4,-999.0,no,yes,no,300234067876920,SVP3GI,AOML,ARAON,North
2020-09-09T12:00:00Z,1599652800,2020,12,0,253.5,253.5,79.042,170.595,-999.00,-1.39,-999.0,no,yes,no,300234067876920,SVP3GI,AOML,ARAON,North
2020-09-09T13:00:02Z,1599656403,2020,13,0,253.5417,253.5417,79.044,170.597,-999.00,-1.38,-999.0,no,yes,no,300234067876920,SVP3GI,AOML,ARAON,North
2020-09-09T13:59:57Z,1599659997,2020,14,0,253.5833,253.5833,79.049,170.599,-999.00,-1.37,-999.0,no,yes,no,300234067876920,SVP3GI,AOML,ARAON,North
2020-09-09T15:00:00Z,1599663600,2020,15,0,253.625,253.625,79.054,170.606,-999.00,-1.37,-999.0,no,yes,no,300234067876920,SVP3GI,AOML,ARAON,North
2020-09-09T16:00:02Z,1599667203,2020,16,0,253.6667,253.6667,79.061,170.621,-999.00,-1.37,-999.0,no,yes,no,300234067876920,SVP3GI,AOML,ARAON,North
2020-09-09T16:59:57Z,1599670797,2020,17,0,253.7083,253.7083,79.07,170.651,-999.00,-1.38,-999.0,no,yes,no,300234067876920,SVP3GI,AOML,ARAON,North
2020-09-09T18:00:00Z,1599674400,2020,18,0,253.75,253.75,79.079,170.698,-999.00,-1.38,-999.0,no,yes,no,300234067876920,SVP3GI,AOML,ARAON,North
2020-09-09T19:00:02Z,1599678003,2020,19,0,253.7917,253.7917,79.087,170.759,-999.00,-1.37,-999.0,no,yes,no,300234067876920,SVP3GI,AOML,ARAON,North
2020-09-09T19:59:57Z,1599681597,2020,20,0,253.8333,253.8333,79.093,170.834,-999.00,-1.38,-999.0,no,yes,no,300234067876920,SVP3GI,AOML,ARAON,North
2020-09-09T21:00:00Z,1599685200,2020,21,0,253.875,253.875,79.095,170.917,-999.00,-1.38,-999.0,no,yes,no,300234067876920,SVP3GI,AOML,ARAON,North
2020-09-09T22:00:02Z,1599688803,2020,22,0,253.9167,253.9167,79.093,170.999,-999.00,-1.4,-999.0,no,yes,no,300234067876920,SVP3GI,AOML,ARAON,North
2020-09-09T22:59:57Z,1599692397,2020,23,0,253.9583,253.9583,79.085,171.06,-999.00,-1.39,-999.0,no,yes,no,300234067876920,SVP3GI,AOML,ARAON,North
2020-09-10T00:00:00Z,1599696000,2020,0,0,254.0,254.0,79.074,171.103,-999.00,-1.37,-999.0,no,yes,no,300234067876920,SVP3GI,AOML,ARAON,North
2020-09-10T01:00:02Z,1599699603,2020,1,0,254.0417,254.0417,79.065,171.121,-999.00,-1.37,-999.0,no,yes,no,300234067876920,SVP3GI,AOML,ARAON,North
2020-09-10T01:59:57Z,1599703197,2020,2,0,254.0833,254.0833,79.058,171.126,-999.00,-1.34,-999.0,no,yes,no,300234067876920,SVP3GI,AOML,ARAON,North
2020-09-10T03:00:00Z,1599706800,2020,3,0,254.125,254.125,79.054,171.126,-999.00,-1.34,-999.0,no,yes,no,300234067876920,SVP3GI,AOML,ARAON,North
2020-09-10T04:00:02Z,1599710403,2020,4,0,254.1667,254.1667,79.053,171.124,-999.00,-1.34,-999.0,no,yes,no,300234067876920,SVP3GI,AOML,ARAON,North
2020-09-10T04:59:57Z,1599713997,2020,5,0,254.2083,254.2083,79.054,171.13,-999.00,-1.34,-999.0,no,yes,no,300234067876920,SVP3GI,AOML,ARAON,North
2020-09-10T06:00:00Z,1599717600,2020,6,0,254.25,254.25,79.057,171.155,-999.00,-1.35,-999.0,no,yes,no,300234067876920,SVP3GI,AOML,ARAON,North
2020-09-10T07:00:02Z,1599721203,2020,7,0,254.2917,254.2917,79.059,171.193,-999.00,-1.34,-999.0,no,yes,no,300234067876920,SVP3GI,AOML,ARAON,North
2020-09-10T07:59:57Z,1599724797,2020,8,0,254.3333,254.3333,79.058,171.244,-999.00,-1.34,-999.0,no,yes,no,300234067876920,SVP3GI,AOML,ARAON,North
2020-09-10T09:00:00Z,1599728400,2020,9,0,254.375,254.375,79.053,171.3,-999.00,-1.35,-999.0,no,yes,no,300234067876920,SVP3GI,AOML,ARAON,North
2020-09-10T10:00:02Z,1599732003,2020,10,0,254.4167,254.4167,79.044,171.351,-999.00,-1.36,-999.0,no,yes,no,300234067876920,SVP3GI,AOML,ARAON,North
2020-09-10T10:59:57Z,1599735597,2020,11,0,254.4583,254.4583,79.032,171.386,-999.00,-1.37,-999.0,no,yes,no,300234067876920,SVP3GI,AOML,ARAON,North
2020-09-10T12:00:00Z,1599739200,2020,12,0,254.5,254.5,79.019,171.397,-999.00,-1.37,-999.0,no,yes,no,300234067876920,SVP3GI,AOML,ARAON,North
2020-09-10T13:00:02Z,1599742803,2020,13,0,254.5417,254.5417,79.008,171.381,-999.00,-1.37,-999.0,no,yes,no,300234067876920,SVP3GI,AOML,ARAON,North
2020-09-10T13:59:57Z,1599746397,2020,14,0,254.5833,254.5833,78.999,171.347,-999.00,-1.37,-999.0,no,yes,no,300234067876920,SVP3GI,AOML,ARAON,North
2020-09-10T15:00:00Z,1599750000,2020,15,0,254.625,254.625,78.993,171.302,-999.00,-1.38,-999.0,no,yes,no,300234067876920,SVP3GI,AOML,ARAON,North
2020-09-10T16:00:02Z,1599753603,2020,16,0,254.6667,254.6667,78.993,171.26,-999.00,-1.37,-999.0,no,yes,no,300234067876920,SVP3GI,AOML,ARAON,North
2020-09-10T16:59:57Z,1599757197,2020,17,0,254.7083,254.7083,78.998,171.233,-999.00,-1.37,-999.0,no,yes,no,300234067876920,SVP3GI,AOML,ARAON,North
2020-09-10T18:00:00Z,1599760800,2020,18,0,254.75,254.75,79.006,171.222,-999.00,-1.36,-999.0,no,yes,no,300234067876920,SVP3GI,AOML,ARAON,North
2020-09-10T19:00:02Z,1599764403,2020,19,0,254.7917,254.7917,79.013,171.226,-999.00,-1.36,-999.0,no,yes,no,300234067876920,SVP3GI,AOML,ARAON,North
2020-09-10T19:59:57Z,1599767997,2020,20,0,254.8333,254.8333,79.018,171.246,-999.00,-1.37,-999.0,no,yes,no,300234067876920,SVP3GI,AOML,ARAON,North
2020-09-10T21:00:00Z,1599771600,2020,21,0,254.875,254.875,79.022,171.269,-999.00,-1.35,-999.0,no,yes,no,300234067876920,SVP3GI,AOML,ARAON,North
2020-09-10T22:00:02Z,1599775203,2020,22,0,254.9167,254.9167,79.023,171.29,-999.00,-1.38,-999.0,no,yes,no,300234067876920,SVP3GI,AOML,ARAON,North
2020-09-10T22:59:57Z,1599778797,2020,23,0,254.9583,254.9583,79.022,171.302,-999.00,-1.37,-999.0,no,yes,no,300234067876920,SVP3GI,AOML,ARAON,North
2020-09-11T00:00:00Z,1599782400,2020,0,0,255.0,255.0,79.018,171.299,-999.00,-1.32,-999.0,no,yes,no,300234067876920,SVP3GI,AOML,ARAON,North
2020-09-11T01:00:02Z,1599786003,2020,1,0,255.0417,255.0417,79.015,171.282,-999.00,-1.31,-999.0,no,yes,no,300234067876920,SVP3GI,AOML,ARAON,North
2020-09-11T01:59:57Z,1599789597,2020,2,0,255.0833,255.0833,79.014,171.256,-999.00,-1.31,-999.0,no,yes,no,300234067876920,SVP3GI,AOML,ARAON,North
2020-09-11T03:00:00Z,1599793200,2020,3,0,255.125,255.125,79.016,171.222,-999.00,-1.32,-999.0,no,yes,no,300234067876920,SVP3GI,AOML,ARAON,North
2020-09-11T04:00:02Z,1599796803,2020,4,0,255.1667,255.1667,79.02,171.185,-999.00,-1.33,-999.0,no,yes,no,300234067876920,SVP3GI,AOML,ARAON,North
2020-09-11T04:59:57Z,1599800397,2020,5,0,255.2083,255.2083,79.028,171.154,-999.00,-1.32,-999.0,no,yes,no,300234067876920,SVP3GI,AOML,ARAON,North
2020-09-11T06:00:00Z,1599804000,2020,6,0,255.25,255.25,79.037,171.14,-999.00,-1.31,-999.0,no,yes,no,300234067876920,SVP3GI,AOML,ARAON,North
2020-09-11T07:00:02Z,1599807603,2020,7,0,255.2917,255.2917,79.043,171.145,-999.00,-1.3,-999.0,no,yes,no,300234067876920,SVP3GI,AOML,ARAON,North
2020-09-11T07:59:57Z,1599811197,2020,8,0,255.3333,255.3333,79.049,171.167,-999.00,-1.36,-999.0,no,yes,no,300234067876920,SVP3GI,AOML,ARAON,North
2020-09-11T09:00:00Z,1599814800,2020,9,0,255.375,255.375,79.051,171.197,-999.00,-1.32,-999.0,no,yes,no,300234067876920,SVP3GI,AOML,ARAON,North
2020-09-11T10:00:02Z,1599818403,2020,10,0,255.4167,255.4167,79.05,171.229,-999.00,-1.36,-999.0,no,yes,no,300234067876920,SVP3GI,AOML,ARAON,North
2020-09-11T10:59:57Z,1599821997,2020,11,0,255.4583,255.4583,79.046,171.254,-999.00,-1.32,-999.0,no,yes,no,300234067876920,SVP3GI,AOML,ARAON,North
2020-09-11T12:00:00Z,1599825600,2020,12,0,255.5,255.5,79.04,171.265,-999.00,-1.32,-999.0,no,yes,no,300234067876920,SVP3GI,AOML,ARAON,North
2020-09-11T13:00:02Z,1599829203,2020,13,0,255.5417,255.5417,79.033,171.257,-999.00,-1.34,-999.0,no,yes,no,300234067876920,SVP3GI,AOML,ARAON,North
2020-09-11T13:59:57Z,1599832797,2020,14,0,255.5833,255.5833,79.028,171.233,-999.00,-1.33,-999.0,no,yes,no,300234067876920,SVP3GI,AOML,ARAON,North
2020-09-11T15:00:00Z,1599836400,2020,15,0,255.625,255.625,79.026,171.205,-999.00,-1.33,-999.0,no,yes,no,300234067876920,SVP3GI,AOML,ARAON,North
2020-09-11T16:00:02Z,1599840003,2020,16,0,255.6667,255.6667,79.027,171.175,-999.00,-1.33,-999.0,no,yes,no,300234067876920,SVP3GI,AOML,ARAON,North
2020-09-11T16:59:57Z,1599843597,2020,17,0,255.7083,255.7083,79.032,171.157,-999.00,-1.34,-999.0,no,yes,no,300234067876920,SVP3GI,AOML,ARAON,North
2020-09-11T18:00:00Z,1599847200,2020,18,0,255.75,255.75,79.038,171.159,-999.00,-1.39,-999.0,no,yes,no,300234067876920,SVP3GI,AOML,ARAON,North
2020-09-11T19:00:02Z,1599850803,2020,19,0,255.7917,255.7917,79.043,171.163,-999.00,-1.36,-999.0,no,yes,no,300234067876920,SVP3GI,AOML,ARAON,North
2020-09-11T19:59:57Z,1599854397,2020,20,0,255.8333,255.8333,79.045,171.179,-999.00,-1.35,-999.0,no,yes,no,300234067876920,SVP3GI,AOML,ARAON,North
2020-09-11T21:00:00Z,1599858000,2020,21,0,255.875,255.875,79.045,171.22,-999.00,-1.34,-999.0,no,yes,no,300234067876920,SVP3GI,AOML,ARAON,North
2020-09-11T22:00:02Z,1599861603,2020,22,0,255.9167,255.9167,79.041,171.269,-999.00,-1.34,-999.0,no,yes,no,300234067876920,SVP3GI,AOML,ARAON,North
2020-09-11T22:59:57Z,1599865197,2020,23,0,255.9583,255.9583,79.034,171.299,-999.00,-1.32,-999.0,no,yes,no,300234067876920,SVP3GI,AOML,ARAON,North
2020-09-12T00:00:00Z,1599868800,2020,0,0,256.0,256.0,79.028,171.305,-999.00,-1.29,-999.0,no,yes,no,300234067876920,SVP3GI,AOML,ARAON,North
2020-09-12T01:00:02Z,1599872403,2020,1,0,256.0417,256.0417,79.023,171.294,-999.00,-1.28,-999.0,no,yes,no,300234067876920,SVP3GI,AOML,ARAON,North
2020-09-12T01:59:57Z,1599875997,2020,2,0,256.0833,256.0833,79.02,171.277,-999.00,-1.25,-999.0,no,yes,no,300234067876920,SVP3GI,AOML,ARAON,North
2020-09-12T03:00:00Z,1599879600,2020,3,0,256.125,256.125,79.02,171.259,-999.00,-1.25,-999.0,no,yes,no,300234067876920,SVP3GI,AOML,ARAON,North
2020-09-12T04:00:02Z,1599883203,2020,4,0,256.1667,256.1667,79.025,171.248,-999.00,-1.24,-999.0,no,yes,no,300234067876920,SVP3GI,AOML,ARAON,North
2020-09-12T04:59:57Z,1599886797,2020,5,0,256.2083,256.2083,79.033,171.253,-999.00,-1.24,-999.0,no,yes,no,300234067876920,SVP3GI,AOML,ARAON,North
2020-09-12T06:00:00Z,1599890400,2020,6,0,256.25,256.25,79.044,171.28,-999.00,-1.26,-999.0,no,yes,no,300234067876920,SVP3GI,AOML,ARAON,North
2020-09-12T07:00:02Z,1599894003,2020,7,0,256.2917,256.2917,79.053,171.331,-999.00,-1.28,-999.0,no,yes,no,300234067876920,SVP3GI,AOML,ARAON,North
2020-09-12T07:59:57Z,1599897597,2020,8,0,256.3333,256.3333,79.06,171.388,-999.00,-1.33,-999.0,no,yes,no,300234067876920,SVP3GI,AOML,ARAON,North
2020-09-12T09:00:00Z,1599901200,2020,9,0,256.375,256.375,79.064,171.451,-999.00,-1.32,-999.0,no,yes,no,300234067876920,SVP3GI,AOML,ARAON,North
2020-09-12T10:00:02Z,1599904803,2020,10,0,256.4167,256.4167,79.065,171.51,-999.00,-1.32,-999.0,no,yes,no,300234067876920,SVP3GI,AOML,ARAON,North
2020-09-12T10:59:57Z,1599908397,2020,11,0,256.4583,256.4583,79.061,171.555,-999.00,-1.29,-999.0,no,yes,no,300234067876920,SVP3GI,AOML,ARAON,North
2020-09-12T12:00:00Z,1599912000,2020,12,0,256.5,256.5,79.055,171.583,-999.00,-1.29,-999.0,no,yes,no,300234067876920,SVP3GI,AOML,ARAON,North
2020-09-12T13:00:02Z,1599915603,2020,13,0,256.5417,256.5417,79.047,171.594,-999.00,-1.31,-999.0,no,yes,no,300234067876920,SVP3GI,AOML,ARAON,North
2020-09-12T13:59:57Z,1599919197,2020,14,0,256.5833,256.5833,79.041,171.589,-999.00,-1.36,-999.0,no,yes,no,300234067876920,SVP3GI,AOML,ARAON,North
2020-09-12T15:00:00Z,1599922800,2020,15,0,256.625,256.625,79.039,171.567,-999.00,-1.34,-999.0,no,yes,no,300234067876920,SVP3GI,AOML,ARAON,North
2020-09-12T16:00:02Z,1599926403,2020,16,0,256.6667,256.6667,79.042,171.542,-999.00,-1.34,-999.0,no,yes,no,300234067876920,SVP3GI,AOML,ARAON,North
2020-09-12T16:59:57Z,1599929997,2020,17,0,256.7083,256.7083,79.049,171.524,-999.00,-1.34,-999.0,no,yes,no,300234067876920,SVP3GI,AOML,ARAON,North
2020-09-12T18:00:00Z,1599933600,2020,18,0,256.75,256.75,79.058,171.528,-999.00,-1.33,-999.0,no,yes,no,300234067876920,SVP3GI,AOML,ARAON,North
2020-09-12T19:00:02Z,1599937203,2020,19,0,256.7917,256.7917,79.067,171.556,-999.00,-1.33,-999.0,no,yes,no,300234067876920,SVP3GI,AOML,ARAON,North
2020-09-12T19:59:57Z,1599940797,2020,20,0,256.8333,256.8333,79.073,171.602,-999.00,-1.33,-999.0,no,yes,no,300234067876920,SVP3GI,AOML,ARAON,North
2020-09-12T21:00:00Z,1599944400,2020,21,0,256.875,256.875,79.075,171.656,-999.00,-1.33,-999.0,no,yes,no,300234067876920,SVP3GI,AOML,ARAON,North
2020-09-12T22:00:02Z,1599948003,2020,22,0,256.9167,256.9167,79.072,171.704,-999.00,-1.32,-999.0,no,yes,no,300234067876920,SVP3GI,AOML,ARAON,North
2020-09-12T22:59:57Z,1599951597,2020,23,0,256.9583,256.9583,79.065,171.738,-999.00,-1.34,-999.0,no,yes,no,300234067876920,SVP3GI,AOML,ARAON,North
2020-09-13T00:00:00Z,1599955200,2020,0,0,257.0,257.0,79.056,171.752,-999.00,-1.36,-999.0,no,yes,no,300234067876920,SVP3GI,AOML,ARAON,North
2020-09-13T01:00:02Z,1599958803,2020,1,0,257.0417,257.0417,79.046,171.743,-999.00,-1.31,-999.0,no,yes,no,300234067876920,SVP3GI,AOML,ARAON,North
2020-09-13T01:59:57Z,1599962397,2020,2,0,257.0833,257.0833,79.038,171.725,-999.00,-1.32,-999.0,no,yes,no,300234067876920,SVP3GI,AOML,ARAON,North
2020-09-13T03:00:00Z,1599966000,2020,3,0,257.125,257.125,79.034,171.703,-999.00,-1.32,-999.0,no,yes,no,300234067876920,SVP3GI,AOML,ARAON,North
2020-09-13T04:00:02Z,1599969603,2020,4,0,257.1667,257.1667,79.034,171.675,-999.00,-1.33,-999.0,no,yes,no,300234067876920,SVP3GI,AOML,ARAON,North
2020-09-13T04:59:57Z,1599973197,2020,5,0,257.2083,257.2083,79.037,171.649,-999.00,-1.32,-999.0,no,yes,no,300234067876920,SVP3GI,AOML,ARAON,North
2020-09-13T06:00:00Z,1599976800,2020,6,0,257.25,257.25,79.041,171.63,-999.00,-1.32,-999.0,no,yes,no,300234067876920,SVP3GI,AOML,ARAON,North
2020-09-13T07:00:02Z,1599980403,2020,7,0,257.2917,257.2917,79.047,171.635,-999.00,-1.32,-999.0,no,yes,no,300234067876920,SVP3GI,AOML,ARAON,North
2020-09-13T07:59:57Z,1599983997,2020,8,0,257.3333,257.3333,79.054,171.66,-999.00,-1.28,-999.0,no,yes,no,300234067876920,SVP3GI,AOML,ARAON,North
2020-09-13T09:00:00Z,1599987600,2020,9,0,257.375,257.375,79.06,171.694,-999.00,-1.29,-999.0,no,yes,no,300234067876920,SVP3GI,AOML,ARAON,North
2020-09-13T10:00:02Z,1599991203,2020,10,0,257.4167,257.4167,79.062,171.73,-999.00,-1.28,-999.0,no,yes,no,300234067876920,SVP3GI,AOML,ARAON,North
2020-09-13T10:59:57Z,1599994797,2020,11,0,257.4583,257.4583,79.061,171.762,-999.00,-1.31,-999.0,no,yes,no,300234067876920,SVP3GI,AOML,ARAON,North
2020-09-13T12:00:00Z,1599998400,2020,12,0,257.5,257.5,79.057,171.776,-999.00,-1.31,-999.0,no,yes,no,300234067876920,SVP3GI,AOML,ARAON,North
2020-09-13T13:00:02Z,1600002003,2020,13,0,257.5417,257.5417,79.052,171.771,-999.00,-1.32,-999.0,no,yes,no,300234067876920,SVP3GI,AOML,ARAON,North
2020-09-13T13:59:57Z,1600005597,2020,14,0,257.5833,257.5833,79.048,171.751,-999.00,-1.33,-999.0,no,yes,no,300234067876920,SVP3GI,AOML,ARAON,North
2020-09-13T15:00:00Z,1600009200,2020,15,0,257.625,257.625,79.046,171.719,-999.00,-1.33,-999.0,no,yes,no,300234067876920,SVP3GI,AOML,ARAON,North
2020-09-13T16:00:02Z,1600012803,2020,16,0,257.6667,257.6667,79.048,171.682,-999.00,-1.32,-999.0,no,yes,no,300234067876920,SVP3GI,AOML,ARAON,North
2020-09-13T16:59:57Z,1600016397,2020,17,0,257.7083,257.7083,79.055,171.653,-999.00,-1.32,-999.0,no,yes,no,300234067876920,SVP3GI,AOML,ARAON,North
2020-09-13T18:00:00Z,1600020000,2020,18,0,257.75,257.75,79.065,171.643,-999.00,-1.32,-999.0,no,yes,no,300234067876920,SVP3GI,AOML,ARAON,North
2020-09-13T19:00:02Z,1600023603,2020,19,0,257.7917,257.7917,79.077,171.648,-999.00,-1.33,-999.0,no,yes,no,300234067876920,SVP3GI,AOML,ARAON,North
2020-09-13T19:59:57Z,1600027197,2020,20,0,257.8333,257.8333,79.09,171.668,-999.00,-1.36,-999.0,no,yes,no,300234067876920,SVP3GI,AOML,ARAON,North
2020-09-13T21:00:00Z,1600030800,2020,21,0,257.875,257.875,79.1,171.707,-999.00,-1.36,-999.0,no,yes,no,300234067876920,SVP3GI,AOML,ARAON,North
2020-09-13T22:00:02Z,1600034403,2020,22,0,257.9167,257.9167,79.107,171.754,-999.00,-1.37,-999.0,no,yes,no,300234067876920,SVP3GI,AOML,ARAON,North
2020-09-13T22:59:57Z,1600037997,2020,23,0,257.9583,257.9583,79.109,171.789,-999.00,-1.25,-999.0,no,yes,no,300234067876920,SVP3GI,AOML,ARAON,North
2020-09-14T00:00:00Z,1600041600,2020,0,0,258.0,258.0,79.106,171.809,-999.00,-1.25,-999.0,no,yes,no,300234067876920,SVP3GI,AOML,ARAON,North
2020-09-14T01:00:02Z,1600045203,2020,1,0,258.0417,258.0417,79.103,171.813,-999.00,-1.23,-999.0,no,yes,no,300234067876920,SVP3GI,AOML,ARAON,North
2020-09-14T01:59:57Z,1600048797,2020,2,0,258.0833,258.0833,79.1,171.801,-999.00,-1.22,-999.0,no,yes,no,300234067876920,SVP3GI,AOML,ARAON,North
2020-09-14T03:00:00Z,1600052400,2020,3,0,258.125,258.125,79.1,171.776,-999.00,-1.21,-999.0,no,yes,no,300234067876920,SVP3GI,AOML,ARAON,North
2020-09-14T04:00:02Z,1600056003,2020,4,0,258.1667,258.1667,79.102,171.745,-999.00,-1.22,-999.0,no,yes,no,300234067876920,SVP3GI,AOML,ARAON,North
2020-09-14T04:59:57Z,1600059597,2020,5,0,258.2083,258.2083,79.108,171.721,-999.00,-1.2,-999.0,no,yes,no,300234067876920,SVP3GI,AOML,ARAON,North
2020-09-14T06:00:00Z,1600063200,2020,6,0,258.25,258.25,79.115,171.712,-999.00,-1.21,-999.0,no,yes,no,300234067876920,SVP3GI,AOML,ARAON,North
2020-09-14T07:00:02Z,1600066803,2020,7,0,258.2917,258.2917,79.124,171.718,-999.00,-1.21,-999.0,no,yes,no,300234067876920,SVP3GI,AOML,ARAON,North
2020-09-14T07:59:57Z,1600070397,2020,8,0,258.3333,258.3333,79.132,171.743,-999.00,-1.27,-999.0,no,yes,no,300234067876920,SVP3GI,AOML,ARAON,North
2020-09-14T09:00:00Z,1600074000,2020,9,0,258.375,258.375,79.14,171.783,-999.00,-1.28,-999.0,no,yes,no,300234067876920,SVP3GI,AOML,ARAON,North
2020-09-14T10:00:02Z,1600077603,2020,10,0,258.4167,258.4167,79.145,171.83,-999.00,-1.29,-999.0,no,yes,no,300234067876920,SVP3GI,AOML,ARAON,North
2020-09-14T10:59:57Z,1600081197,2020,11,0,258.4583,258.4583,79.147,171.879,-999.00,-1.32,-999.0,no,yes,no,300234067876920,SVP3GI,AOML,ARAON,North
2020-09-14T12:00:00Z,1600084800,2020,12,0,258.5,258.5,79.145,171.918,-999.00,-1.29,-999.0,no,yes,no,300234067876920,SVP3GI,AOML,ARAON,North
2020-09-14T13:00:02Z,1600088403,2020,13,0,258.5417,258.5417,79.142,171.938,-999.00,-1.29,-999.0,no,yes,no,300234067876920,SVP3GI,AOML,ARAON,North
2020-09-14T13:59:57Z,1600091997,2020,14,0,258.5833,258.5833,79.139,171.932,-999.00,-1.27,-999.0,no,yes,no,300234067876920,SVP3GI,AOML,ARAON,North
2020-09-14T15:00:00Z,1600095600,2020,15,0,258.625,258.625,79.139,171.914,-999.00,-1.28,-999.0,no,yes,no,300234067876920,SVP3GI,AOML,ARAON,North
2020-09-14T16:00:02Z,1600099203,2020,16,0,258.6667,258.6667,79.141,171.892,-999.00,-1.28,-999.0,no,yes,no,300234067876920,SVP3GI,AOML,ARAON,North
2020-09-14T16:59:57Z,1600102797,2020,17,0,258.7083,258.7083,79.147,171.877,-999.00,-1.27,-999.0,no,yes,no,300234067876920,SVP3GI,AOML,ARAON,North
2020-09-14T18:00:00Z,1600106400,2020,18,0,258.75,258.75,79.153,171.874,-999.00,-1.27,-999.0,no,yes,no,300234067876920,SVP3GI,AOML,ARAON,North